Total_Precipitation_Accumulation
0.04 0.03 0.03 0.02 0.00 0.00 0.00 0.00 0.00 0.00 0.00 0.00 0.00 0.00 0.00 0.00 0.00 0.00 0.00 0.00 0.01 0.01 0.01 0.01 0.01 0.01 0.00 0.00 0.00 0.00 0.00 0.00 0.00 0.00 0.00 0.00 0.00 0.00 0.00 0.00 0.00 0.00 0.00
0.04 0.04 0.05 0.02 0.00 0.00 0.00 0.00 0.00 0.00 0.00 0.00 0.00 0.00 0.00 0.00 0.00 0.00 0.00 0.00 0.00 0.01 0.02 0.02 0.02 0.02 0.00 0.00 0.00 0.00 0.00 0.00 0.00 0.00 0.00 0.00 0.00 0.00 0.00 0.00 0.00 0.00 0.00
0.04 0.03 0.04 0.03 0.00 0.00 0.00 0.00 0.00 0.00 0.00 0.00 0.00 0.00 0.00 0.00 0.00 0.00 0.00 0.00 0.00 0.00 0.01 0.03 0.02 0.02 0.02 0.00 0.00 0.00 0.00 0.00 0.00 0.00 0.00 0.00 0.00 0.00 0.00 0.00 0.00 0.00 0.00
0.03 0.04 0.05 0.02 0.00 0.00 0.00 0.00 0.00 0.00 0.00 0.00 0.00 0.00 0.00 0.00 0.00 0.00 0.00 0.00 0.00 0.00 0.00 0.01 0.02 0.03 0.02 0.00 0.00 0.00 0.00 0.00 0.00 0.00 0.00 0.00 0.00 0.00 0.00 0.00 0.00 0.00 0.00
0.02 0.02 0.07 0.06 0.02 0.03 0.00 0.00 0.00 0.00 0.00 0.00 0.00 0.00 0.00 0.00 0.00 0.00 0.00 0.00 0.00 0.00 0.00 0.00 0.00 0.01 0.03 0.01 0.00 0.00 0.00 0.00 0.00 0.00 0.00 0.00 0.00 0.00 0.00 0.00 0.00 0.00 0.00
0.02 0.01 0.02 0.07 0.08 0.05 0.02 0.00 0.00 0.00 0.00 0.00 0.00 0.00 0.00 0.00 0.00 0.00 0.00 0.00 0.00 0.00 0.00 0.00 0.00 0.00 0.00 0.01 0.00 0.00 0.00 0.00 0.00 0.00 0.00 0.00 0.00 0.00 0.00 0.00 0.00 0.00 0.00
0.03 0.02 0.01 0.04 0.02 0.07 0.06 0.01 0.00 0.00 0.00 0.00 0.00 0.00 0.00 0.00 0.00 0.00 0.00 0.00 0.00 0.00 0.00 0.00 0.00 0.00 0.00 0.00 0.00 0.00 0.01 0.02 0.02 0.01 0.00 0.00 0.00 0.00 0.00 0.00 0.00 0.00 0.00
0.02 0.06 0.05 0.05 0.03 0.07 0.09 0.04 0.02 0.02 0.01 0.00 0.00 0.00 0.00 0.00 0.00 0.00 0.00 0.00 0.00 0.00 0.00 0.00 0.00 0.00 0.00 0.00 0.00 0.00 0.00 0.00 0.01 0.03 0.02 0.00 0.00 0.00 0.00 0.00 0.00 0.00 0.00
0.04 0.03 0.04 0.07 0.07 0.07 0.07 0.05 0.04 0.05 0.03 0.03 0.01 0.00 0.02 0.01 0.00 0.00 0.00 0.00 0.00 0.00 0.00 0.00 0.00 0.00 0.00 0.00 0.00 0.00 0.00 0.00 0.00 0.01 0.03 0.02 0.01 0.00 0.00 0.00 0.00 0.00 0.00
0.09 0.06 0.03 0.03 0.07 0.07 0.12 0.10 0.07 0.06 0.09 0.09 0.06 0.03 0.02 0.04 0.12 0.08 0.00 0.00 0.00 0.00 0.00 0.00 0.00 0.00 0.00 0.00 0.00 0.00 0.00 0.00 0.00 0.00 0.01 0.02 0.02 0.01 0.02 0.02 0.02 0.02 0.02
0.05 0.10 0.06 0.04 0.07 0.09 0.16 0.22 0.19 0.10 0.10 0.21 0.11 0.03 0.02 0.02 0.05 0.16 0.11 0.05 0.03 0.02 0.01 0.00 0.00 0.00 0.00 0.00 0.00 0.00 0.00 0.00 0.00 0.00 0.00 0.00 0.02 0.02 0.02 0.04 0.05 0.06 0.07
0.02 0.03 0.07 0.06 0.09 0.11 0.19 0.22 0.25 0.22 0.19 0.22 0.18 0.09 0.10 0.09 0.05 0.08 0.10 0.10 0.14 0.10 0.04 0.03 0.01 0.00 0.00 0.00 0.00 0.00 0.00 0.00 0.00 0.00 0.00 0.00 0.00 0.01 0.02 0.04 0.06 0.05 0.07
0.00 0.01 0.04 0.05 0.08 0.11 0.16 0.22 0.26 0.27 0.30 0.35 0.35 0.22 0.15 0.14 0.16 0.15 0.19 0.14 0.13 0.09 0.07 0.05 0.02 0.01 0.00 0.00 0.00 0.00 0.00 0.00 0.00 0.00 0.00 0.00 0.00 0.00 0.02 0.04 0.03 0.03 0.04
0.00 0.03 0.08 0.10 0.10 0.07 0.11 0.16 0.18 0.19 0.24 0.29 0.29 0.28 0.25 0.18 0.20 0.21 0.18 0.18 0.18 0.12 0.10 0.04 0.02 0.01 0.00 0.00 0.00 0.00 0.00 0.00 0.00 0.00 0.00 0.00 0.00 0.00 0.01 0.01 0.02 0.02 0.02
0.00 0.02 0.03 0.09 0.12 0.09 0.09 0.09 0.10 0.10 0.11 0.13 0.15 0.17 0.17 0.13 0.14 0.12 0.13 0.13 0.14 0.12 0.08 0.04 0.03 0.00 0.00 0.00 0.00 0.00 0.00 0.00 0.00 0.00 0.00 0.00 0.00 0.00 0.01 0.01 0.03 0.03 0.03
0.08 0.04 0.03 0.02 0.05 0.05 0.04 0.05 0.05 0.07 0.08 0.07 0.06 0.06 0.06 0.06 0.10 0.13 0.13 0.15 0.20 0.18 0.16 0.07 0.03 0.00 0.00 0.00 0.00 0.00 0.00 0.00 0.00 0.00 0.00 0.00 0.00 0.00 0.00 0.01 0.02 0.05 0.07
0.18 0.17 0.17 0.11 0.06 0.07 0.08 0.08 0.05 0.06 0.06 0.06 0.08 0.10 0.10 0.12 0.14 0.14 0.12 0.10 0.08 0.07 0.10 0.08 0.10 0.10 0.07 0.04 0.02 0.02 0.01 0.01 0.01 0.02 0.02 0.02 0.03 0.04 0.05 0.06 0.09 0.10 0.10
0.18 0.17 0.23 0.22 0.20 0.15 0.15 0.14 0.13 0.12 0.12 0.11 0.11 0.12 0.10 0.09 0.13 0.15 0.20 0.23 0.27 0.32 0.44 0.42 0.31 0.23 0.14 0.07 0.05 0.03 0.02 0.02 0.02 0.03 0.05 0.07 0.09 0.10 0.12 0.13 0.14 0.15 0.15
0.13 0.11 0.14 0.18 0.21 0.20 0.20 0.18 0.16 0.14 0.12 0.11 0.12 0.14 0.15 0.19 0.24 0.23 0.24 0.27 0.29 0.31 0.33 0.33 0.28 0.18 0.12 0.08 0.11 0.12 0.10 0.10 0.08 0.11 0.12 0.12 0.14 0.17 0.20 0.24 0.26 0.26 0.21
0.03 0.02 0.06 0.11 0.13 0.13 0.10 0.10 0.11 0.16 0.16 0.18 0.21 0.24 0.23 0.21 0.16 0.15 0.17 0.21 0.21 0.22 0.21 0.24 0.29 0.27 0.20 0.16 0.18 0.22 0.23 0.21 0.22 0.25 0.24 0.19 0.20 0.26 0.32 0.34 0.32 0.29 0.26
0.13 0.13 0.12 0.13 0.08 0.05 0.04 0.07 0.09 0.11 0.16 0.21 0.23 0.24 0.23 0.27 0.29 0.27 0.23 0.18 0.19 0.22 0.25 0.26 0.24 0.26 0.22 0.19 0.17 0.17 0.24 0.26 0.28 0.29 0.28 0.22 0.19 0.19 0.23 0.27 0.26 0.27 0.30
0.20 0.28 0.27 0.26 0.22 0.21 0.18 0.15 0.16 0.12 0.12 0.11 0.09 0.07 0.10 0.22 0.21 0.28 0.29 0.31 0.36 0.40 0.39 0.39 0.39 0.40 0.31 0.25 0.25 0.28 0.35 0.45 0.46 0.41 0.38 0.37 0.30 0.24 0.22 0.22 0.20 0.19 0.16
0.21 0.18 0.15 0.22 0.28 0.28 0.30 0.20 0.16 0.10 0.08 0.08 0.08 0.08 0.08 0.12 0.22 0.16 0.30 0.37 0.38 0.52 0.56 0.47 0.41 0.41 0.40 0.41 0.49 0.63 0.62 0.59 0.56 0.48 0.41 0.37 0.28 0.19 0.14 0.12 0.12 0.11 0.09
0.16 0.16 0.13 0.20 0.21 0.19 0.26 0.21 0.19 0.10 0.07 0.08 0.09 0.12 0.13 0.14 0.20 0.24 0.18 0.26 0.35 0.44 0.50 0.55 0.60 0.69 0.68 0.64 0.63 0.62 0.59 0.58 0.50 0.41 0.26 0.20 0.16 0.12 0.08 0.07 0.10 0.08 0.07
0.16 0.14 0.13 0.14 0.13 0.17 0.27 0.19 0.18 0.07 0.11 0.14 0.13 0.16 0.25 0.20 0.54 0.51 0.28 0.30 0.48 0.57 0.75 0.71 0.58 0.60 0.64 0.59 0.51 0.42 0.43 0.39 0.38 0.30 0.17 0.10 0.07 0.07 0.04 0.07 0.10 0.11 0.11
0.17 0.15 0.12 0.09 0.15 0.11 0.27 0.20 0.17 0.06 0.11 0.18 0.22 0.30 0.62 0.41 0.60 0.57 0.48 0.39 0.53 0.61 0.53 0.54 0.52 0.48 0.44 0.40 0.36 0.29 0.27 0.27 0.22 0.14 0.05 0.04 0.03 0.04 0.07 0.01 0.03 0.04 0.04